Wetbulb
41.28 41.17 41.22 40.61 40.38 40.47 40.26 40.81 41.03 41.37 41.08 41.08 41.43 41.43 41.17 41.39 41.68 41.11 40.85 40.58 39.60 39.86 39.62 38.96 39.74 41.55 40.39 40.99 40.35 39.38 38.70 38.99 36.51 39.35 41.72 42.17 40.52 39.54 39.54 40.34 40.01 39.67 39.67
41.41 41.15 40.61 40.75 40.23 39.68 39.56 40.39 40.79 40.44 40.92 41.11 41.05 40.74 40.72 40.56 41.13 40.58 40.10 40.17 39.63 39.02 39.01 38.83 39.90 39.86 40.32 41.05 40.25 38.65 38.66 39.28 38.83 37.42 39.76 39.88 39.45 39.89 39.68 39.00 38.58 39.06 39.15
40.65 40.56 40.57 40.60 39.27 39.53 39.92 40.20 40.04 40.18 40.25 40.31 40.23 39.87 40.06 39.96 40.06 39.98 39.75 39.49 39.43 39.07 38.56 38.83 39.84 39.96 39.90 40.78 40.27 38.66 39.74 40.65 41.45 39.29 38.22 39.88 39.36 39.84 38.87 39.03 38.47 38.76 38.63
40.09 39.84 39.95 40.06 40.19 40.00 40.06 39.82 39.70 39.99 39.96 39.29 39.42 39.40 39.48 39.64 39.52 39.45 38.66 38.49 38.58 38.72 38.39 39.26 39.84 40.01 40.12 40.75 40.44 39.74 39.97 40.43 40.76 39.42 38.54 37.75 38.03 39.33 38.91 36.36 34.11 37.02 37.07
39.18 39.35 39.67 40.52 40.78 40.56 39.70 39.15 39.55 39.65 39.73 39.92 39.30 38.76 39.12 38.97 38.95 38.93 38.59 38.44 37.98 38.22 38.45 38.69 39.91 40.94 42.31 43.41 41.35 41.22 40.67 40.52 39.96 38.50 37.38 37.67 37.08 37.05 36.12 35.44 33.47 33.70 37.19
38.94 39.00 40.08 40.23 39.85 39.77 39.77 39.28 38.87 38.94 39.14 38.92 38.42 38.74 38.29 38.26 40.95 42.83 40.97 38.22 37.67 37.29 37.76 38.91 40.02 41.79 42.72 43.48 44.71 43.38 42.22 40.83 39.08 37.39 37.15 36.71 36.75 37.54 37.72 35.04 32.60 31.81 30.88
38.51 39.05 39.31 39.42 39.23 39.57 39.83 39.40 38.52 38.48 38.71 38.28 38.66 38.39 38.34 38.91 42.46 44.34 44.63 42.67 39.71 39.17 39.22 39.27 39.52 40.15 41.61 41.17 41.85 42.17 42.41 42.20 41.31 39.83 37.15 37.99 36.93 37.65 37.30 32.87 33.51 32.24 33.46
38.15 38.71 39.01 39.14 39.13 39.60 39.25 38.99 39.35 39.21 38.51 38.35 38.47 38.50 38.52 38.59 42.35 44.47 45.31 44.31 41.39 40.52 40.19 40.16 39.91 40.05 39.95 39.24 38.28 37.87 39.50 38.75 37.93 36.99 38.16 39.16 40.21 37.51 39.04 37.83 34.66 31.94 36.04
37.51 37.94 38.84 39.11 38.90 39.07 38.58 39.01 39.46 38.95 38.64 38.42 38.78 38.61 37.87 38.66 42.32 44.41 44.50 43.10 41.02 40.13 40.18 39.84 39.43 39.01 40.72 41.91 39.53 38.36 38.87 38.51 37.64 39.63 40.59 40.95 41.68 41.80 41.09 39.20 37.75 35.21 34.29
37.94 38.41 38.93 39.16 39.12 38.77 39.40 39.37 39.57 39.14 39.02 39.06 38.40 38.64 39.73 38.53 41.46 44.00 44.46 41.89 39.60 39.33 39.49 39.26 41.75 39.76 41.52 42.52 41.60 39.21 34.32 35.05 37.02 37.27 37.11 36.66 36.52 36.77 37.47 38.56 37.33 34.78 34.38
38.94 38.45 38.40 38.92 39.09 39.51 39.55 39.36 38.78 38.21 38.57 38.11 38.18 39.02 38.39 40.04 39.37 43.21 44.86 41.77 39.97 38.77 38.50 38.21 38.60 42.64 43.76 43.83 43.31 39.76 37.99 38.76 37.20 35.94 35.44 36.00 36.15 36.17 36.92 36.23 36.01 35.93 35.01
38.88 38.15 38.11 38.48 38.38 38.88 38.46 38.62 37.99 37.85 37.17 37.30 37.08 37.59 37.93 38.52 41.49 42.01 44.63 45.20 42.51 39.03 38.35 39.11 39.57 41.82 43.27 43.29 42.40 42.12 41.91 41.29 37.70 35.53 34.34 34.49 35.01 35.51 35.87 35.55 35.07 35.93 36.61
39.09 39.05 38.75 38.14 38.11 38.29 37.60 37.74 36.85 37.08 37.06 36.63 36.26 36.86 37.61 37.64 37.98 42.73 43.61 45.15 45.52 42.07 40.47 40.36 41.03 42.35 43.44 43.19 42.73 42.18 41.77 38.38 36.18 34.41 33.82 33.75 34.90 35.18 34.18 34.93 35.86 35.37 34.99
39.00 39.04 38.90 38.06 37.87 37.07 37.30 37.74 37.33 36.75 36.41 36.66 36.24 36.46 37.46 37.74 37.40 38.21 40.87 43.01 44.83 44.20 43.66 41.98 42.58 42.55 43.15 42.54 41.56 41.64 38.09 37.26 35.98 34.79 34.12 34.49 34.68 34.48 34.58 34.91 34.51 34.51 34.11
38.21 37.97 37.89 37.64 37.87 38.47 37.51 37.66 37.19 38.74 38.78 37.62 37.76 38.01 37.26 36.56 37.75 39.73 39.14 39.68 41.60 42.94 42.68 41.28 41.68 40.97 40.26 40.19 37.94 37.41 35.81 35.93 34.57 34.13 33.61 33.40 33.34 33.66 33.86 34.62 34.05 33.97 32.78
37.03 37.76 37.81 38.11 37.71 37.04 36.99 37.75 40.03 40.66 40.58 41.40 42.35 40.01 39.34 41.47 41.82 41.77 41.99 41.49 41.62 42.63 40.19 38.16 39.01 39.11 38.79 38.04 36.65 35.68 34.21 34.79 34.75 34.29 34.04 33.45 32.78 32.90 33.12 33.39 33.50 33.06 32.32
36.15 36.60 37.03 37.65 37.53 36.75 36.19 35.89 36.28 38.93 41.39 42.80 42.37 42.82 42.99 40.20 42.48 43.23 42.89 43.45 42.53 42.14 38.01 37.67 38.40 37.79 37.48 37.27 36.15 34.95 33.82 33.80 34.57 33.99 34.14 33.69 32.96 32.68 32.71 32.59 32.31 32.31 31.91
36.24 37.71 37.52 37.27 37.39 37.01 36.53 36.44 36.31 35.95 35.96 37.32 40.89 42.75 43.66 44.24 43.29 43.27 43.79 43.97 41.25 41.57 39.40 36.83 36.73 37.05 36.81 35.48 34.61 33.28 32.95 33.10 33.11 34.02 34.11 33.77 33.19 32.70 32.11 31.93 31.78 31.37 31.51
35.52 35.77 36.05 36.54 36.72 37.03 36.98 35.84 36.03 35.82 35.60 36.08 36.34 38.61 42.75 43.86 44.47 43.61 44.08 41.54 40.23 39.90 39.63 38.20 36.93 36.47 35.84 35.27 34.41 33.31 32.71 32.38 32.94 33.17 33.51 33.38 33.09 32.50 32.16 32.21 31.78 30.75 31.46
35.43 36.26 36.95 36.84 36.60 36.40 35.94 35.38 35.22 35.10 35.25 35.24 35.19 36.04 37.78 41.08 41.02 41.36 41.59 41.43 40.08 39.72 39.94 38.73 37.38 36.13 35.61 34.74 33.81 32.97 32.31 32.68 32.93 32.69 33.21 33.15 33.15 32.77 32.20 31.80 31.32 30.68 31.05
34.54 34.66 36.15 36.29 35.09 35.40 35.57 35.12 35.35 35.17 34.84 34.91 35.28 36.69 37.76 38.00 39.56 40.10 40.45 40.48 40.11 39.50 39.39 39.08 38.03 36.72 35.43 34.56 33.61 32.81 32.52 32.77 33.16 32.63 32.69 32.95 32.81 32.01 32.42 32.41 31.73 30.92 30.85
34.88 34.81 34.74 35.02 35.55 35.16 35.08 35.30 35.42 35.03 34.94 34.60 35.08 35.24 38.05 38.44 38.04 39.01 40.07 40.63 40.80 40.56 40.35 39.39 38.21 36.98 35.70 34.63 33.83 32.98 32.58 32.39 32.85 33.02 32.51 32.47 32.61 32.66 32.53 31.72 31.09 30.55 30.47
35.19 34.94 34.99 34.53 34.69 35.58 35.09 35.03 35.08 34.82 34.62 34.68 34.64 34.17 34.48 36.41 37.53 37.77 38.79 40.13 40.40 40.26 39.68 38.61 37.77 36.33 36.18 35.34 34.95 34.36 33.11 32.91 33.20 33.75 33.13 32.35 31.88 32.20 32.35 31.27 30.40 29.84 29.83
36.44 35.74 34.76 33.79 33.10 33.24 33.84 33.83 34.16 34.46 34.88 34.34 34.33 34.14 34.57 34.88 35.97 36.83 38.15 39.25 39.65 39.40 39.00 38.14 37.54 36.48 35.33 34.62 34.28 34.50 34.76 34.90 34.59 33.82 33.90 32.86 31.98 32.16 31.86 31.12 30.08 29.62 29.66
35.73 34.27 33.35 32.82 32.39 32.08 32.32 32.29 32.88 33.68 34.16 34.30 34.44 34.37 34.72 34.68 34.94 35.85 37.26 37.97 38.14 38.35 37.45 36.79 36.91 36.01 35.11 34.26 33.72 33.77 34.29 34.19 34.02 34.21 33.89 32.98 32.04 31.78 31.45 30.78 29.89 29.35 29.30
33.88 33.06 32.85 32.86 32.74 32.90 32.75 32.74 32.75 32.67 32.61 33.31 34.33 34.86 34.78 34.44 34.64 35.11 35.95 36.08 36.37 36.62 36.64 35.85 35.71 35.27 34.64 34.21 33.83 33.82 34.25 34.36 33.91 34.44 33.63 32.64 31.45 31.28 31.29 30.65 29.81 29.15 29.11
MSLP
1020.12 1020.65 1021.24 1021.71 1022.25 1022.79 1023.14 1023.52 1023.92 1024.47 1024.92 1025.21 1025.45 1025.75 1026.02 1026.12 1026.22 1026.40 1026.50 1026.60 1026.66 1026.61 1026.66 1026.66 1026.54 1026.54 1026.46 1026.41 1026.42 1026.36 1026.12 1025.81 1024.81 1023.26 1022.99 1022.54 1022.56 1022.14 1021.66 1021.31 1020.90 1020.28 1019.72
1019.41 1019.99 1020.34 1020.95 1021.60 1022.24 1022.46 1022.63 1023.13 1023.51 1024.00 1024.30 1024.68 1024.98 1025.23 1025.42 1025.49 1025.64 1025.76 1025.84 1025.88 1025.86 1025.90 1026.02 1025.95 1025.99 1025.88 1025.81 1025.81 1025.65 1025.46 1024.96 1024.34 1023.50 1022.60 1022.34 1022.30 1022.08 1021.62 1021.18 1020.89 1020.25 1019.77
1018.91 1019.53 1020.02 1020.40 1020.93 1021.10 1021.54 1022.04 1022.47 1022.80 1023.06 1023.44 1023.80 1024.07 1024.33 1024.54 1024.73 1024.85 1025.01 1025.11 1025.17 1025.16 1025.27 1025.29 1025.26 1025.38 1025.25 1025.09 1025.10 1024.94 1024.67 1024.00 1023.65 1023.33 1022.56 1022.23 1022.11 1021.86 1021.46 1021.18 1020.82 1020.32 1019.82
1018.01 1018.57 1019.12 1019.54 1019.84 1020.08 1020.56 1021.18 1021.62 1022.05 1022.43 1022.66 1022.84 1023.10 1023.37 1023.62 1023.82 1023.95 1024.15 1024.36 1024.43 1024.42 1024.50 1024.62 1024.63 1024.62 1024.58 1024.44 1024.25 1024.06 1023.78 1023.21 1023.16 1022.83 1022.37 1021.95 1021.99 1021.77 1021.62 1021.40 1021.00 1020.70 1019.92
1017.28 1017.68 1017.94 1018.46 1019.03 1019.72 1020.13 1020.44 1020.75 1021.07 1021.40 1021.83 1022.22 1022.40 1022.58 1022.80 1022.85 1023.05 1023.24 1023.40 1023.54 1023.58 1023.71 1023.82 1023.84 1023.86 1023.83 1023.53 1023.30 1023.13 1022.88 1022.76 1022.69 1022.55 1022.13 1021.84 1021.77 1021.70 1021.58 1021.80 1021.50 1021.04 1020.13
1016.93 1016.93 1017.34 1018.00 1018.36 1018.62 1019.02 1019.60 1020.08 1020.39 1020.70 1021.13 1021.39 1021.60 1021.71 1021.72 1021.74 1021.90 1022.18 1022.47 1022.67 1022.76 1022.76 1022.91 1022.99 1023.05 1022.87 1022.63 1022.35 1022.20 1022.14 1022.17 1022.33 1022.32 1022.14 1021.93 1021.76 1021.73 1021.66 1021.82 1021.63 1021.04 1020.46
1016.32 1016.63 1016.79 1017.06 1017.53 1017.90 1018.35 1018.72 1019.03 1019.28 1019.73 1019.93 1020.20 1020.64 1020.82 1020.86 1020.86 1020.93 1021.11 1021.42 1021.68 1021.79 1021.90 1022.03 1022.20 1022.22 1022.21 1022.11 1022.03 1021.85 1021.78 1022.15 1022.16 1022.05 1022.04 1021.83 1021.74 1021.58 1021.52 1021.47 1021.50 1021.39 1020.80
1016.10 1016.28 1016.47 1016.65 1016.62 1016.96 1017.42 1017.98 1018.13 1018.45 1018.65 1018.94 1019.13 1019.43 1019.77 1019.85 1020.04 1020.16 1020.31 1020.50 1020.70 1020.83 1021.00 1021.18 1021.36 1021.45 1021.47 1021.52 1021.59 1021.59 1021.74 1022.01 1022.03 1021.98 1021.84 1021.62 1021.39 1021.27 1021.15 1021.29 1021.30 1021.13 1020.30
1015.63 1015.65 1015.80 1015.96 1016.22 1016.37 1016.54 1016.58 1016.97 1017.36 1017.59 1017.75 1018.08 1018.43 1018.77 1018.91 1019.10 1019.31 1019.60 1019.71 1019.86 1019.98 1020.20 1020.47 1020.64 1020.77 1020.69 1020.73 1020.98 1021.07 1021.31 1021.52 1021.58 1021.45 1021.27 1021.05 1020.74 1020.52 1020.60 1020.81 1020.67 1020.56 1020.06
1015.05 1014.97 1015.18 1015.19 1015.24 1015.34 1015.33 1015.61 1016.02 1016.33 1016.42 1016.73 1016.94 1017.27 1017.47 1017.74 1018.10 1018.49 1018.78 1019.00 1019.11 1019.27 1019.57 1019.78 1019.87 1019.98 1020.04 1020.02 1020.10 1020.48 1020.90 1021.22 1021.22 1021.16 1021.14 1020.98 1020.89 1020.65 1020.69 1020.63 1020.47 1020.25 1020.10
1013.48 1013.82 1014.30 1014.54 1014.51 1014.52 1014.77 1015.11 1015.17 1015.42 1015.57 1015.68 1015.95 1016.10 1016.43 1016.62 1016.93 1017.26 1017.61 1017.97 1018.13 1018.46 1018.70 1018.98 1019.16 1019.15 1019.21 1019.28 1019.34 1019.81 1020.19 1020.57 1020.77 1020.80 1020.85 1020.72 1020.55 1020.42 1020.38 1020.53 1020.42 1020.25 1019.96
1013.98 1013.69 1013.18 1013.36 1013.59 1013.70 1014.06 1014.23 1014.54 1014.76 1014.90 1015.09 1015.06 1015.12 1015.36 1015.53 1015.67 1016.05 1016.32 1016.50 1017.04 1017.51 1017.62 1017.95 1018.24 1018.45 1018.49 1018.61 1018.75 1019.06 1019.63 1019.92 1020.28 1020.33 1020.34 1020.17 1020.13 1020.19 1020.15 1020.19 1020.32 1020.24 1020.06
1013.55 1013.45 1013.34 1012.91 1012.92 1012.86 1012.85 1013.19 1013.55 1013.95 1013.99 1013.88 1014.16 1014.03 1013.97 1014.29 1014.68 1014.75 1015.08 1015.38 1015.71 1016.24 1016.63 1016.99 1017.37 1017.74 1017.89 1018.03 1018.20 1018.58 1018.99 1019.39 1019.69 1019.86 1019.76 1019.76 1019.96 1020.18 1020.12 1019.83 1019.77 1019.89 1019.78
1013.12 1012.70 1012.47 1012.91 1012.37 1012.26 1012.33 1012.16 1012.34 1012.58 1012.89 1012.72 1012.89 1012.75 1012.58 1012.78 1013.21 1013.75 1013.99 1014.30 1014.70 1015.16 1015.63 1016.21 1016.62 1017.02 1017.33 1017.50 1017.84 1018.08 1018.54 1018.91 1019.13 1019.29 1019.37 1019.51 1019.87 1019.94 1019.87 1019.94 1019.60 1019.48 1019.37
1012.62 1012.47 1012.26 1011.93 1012.20 1011.78 1011.41 1011.30 1011.06 1010.83 1010.95 1011.14 1011.06 1011.44 1011.75 1011.60 1011.40 1011.70 1012.40 1013.01 1013.40 1013.87 1014.83 1015.46 1015.89 1016.31 1016.74 1017.02 1017.48 1017.75 1018.26 1018.55 1018.79 1019.00 1019.16 1019.22 1019.36 1019.42 1019.45 1019.71 1019.69 1019.45 1019.22
1012.28 1011.99 1011.98 1011.85 1011.38 1011.39 1011.15 1010.80 1010.63 1009.98 1009.99 1010.07 1010.07 1010.09 1010.40 1010.40 1010.45 1010.82 1011.33 1011.79 1012.36 1013.10 1013.92 1014.42 1014.82 1015.41 1015.82 1016.28 1016.76 1017.22 1017.72 1017.99 1018.19 1018.50 1018.65 1018.87 1018.94 1018.97 1019.02 1019.27 1019.39 1019.32 1019.17
1011.75 1011.64 1011.51 1011.48 1011.18 1010.70 1010.51 1010.45 1010.15 1009.76 1009.38 1008.93 1009.02 1009.32 1009.20 1009.74 1010.14 1010.06 1010.37 1010.93 1011.67 1012.35 1012.71 1013.21 1013.63 1014.28 1014.89 1015.44 1015.92 1016.41 1016.88 1017.33 1017.62 1017.88 1018.07 1018.28 1018.58 1018.67 1018.76 1018.84 1018.91 1018.97 1019.02
1011.34 1011.39 1010.89 1010.82 1010.95 1010.53 1009.98 1009.47 1009.52 1009.14 1009.18 1008.66 1008.11 1008.28 1008.53 1008.56 1009.09 1009.86 1009.86 1010.19 1010.89 1011.36 1011.62 1012.03 1012.59 1013.17 1013.84 1014.56 1015.09 1015.62 1016.21 1016.77 1017.10 1017.16 1017.49 1017.79 1018.09 1018.21 1018.35 1018.46 1018.61 1018.68 1018.79
1011.40 1011.03 1010.49 1010.07 1009.93 1010.13 1009.74 1009.25 1008.69 1008.81 1008.24 1008.36 1007.97 1007.63 1007.63 1008.01 1008.08 1008.62 1009.35 1009.22 1009.41 1010.04 1010.56 1011.19 1011.61 1012.34 1012.86 1013.54 1014.19 1014.80 1015.35 1015.91 1016.28 1016.54 1016.76 1017.23 1017.62 1017.79 1017.86 1018.11 1018.27 1018.49 1018.61
1010.90 1010.89 1010.32 1009.86 1009.52 1009.52 1009.21 1008.89 1008.34 1008.25 1007.97 1007.81 1007.67 1006.94 1007.07 1007.42 1007.45 1007.48 1008.12 1008.35 1008.47 1008.88 1009.45 1010.14 1010.76 1011.41 1012.00 1012.61 1013.36 1014.06 1014.68 1015.17 1015.61 1015.90 1016.09 1016.49 1017.01 1017.36 1017.40 1017.58 1017.85 1018.02 1018.20
1010.36 1010.27 1009.74 1009.47 1009.13 1008.98 1008.66 1008.12 1007.83 1007.72 1007.62 1007.24 1007.05 1006.80 1006.41 1006.42 1006.24 1006.66 1007.08 1007.34 1007.63 1007.93 1008.32 1008.91 1009.75 1010.40 1011.05 1011.73 1012.40 1013.17 1013.75 1014.21 1014.74 1015.17 1015.51 1015.77 1016.29 1016.77 1017.13 1017.21 1017.32 1017.62 1017.87
1010.08 1009.82 1009.42 1009.28 1008.95 1008.55 1008.26 1007.78 1007.30 1007.07 1006.86 1006.81 1006.36 1006.28 1006.13 1005.97 1005.42 1005.76 1006.02 1006.32 1006.62 1007.11 1007.48 1007.91 1008.58 1009.38 1009.87 1010.50 1011.26 1012.01 1012.69 1013.28 1013.86 1014.39 1014.81 1015.21 1015.56 1016.12 1016.63 1016.96 1017.08 1017.24 1017.49
1009.46 1009.32 1009.04 1008.77 1008.61 1008.25 1007.70 1007.23 1006.91 1006.76 1006.50 1006.07 1005.86 1005.74 1005.75 1005.25 1004.91 1005.03 1005.12 1005.54 1005.77 1006.16 1006.66 1007.15 1007.67 1008.29 1009.02 1009.49 1010.03 1010.67 1011.43 1012.06 1012.67 1013.39 1014.02 1014.58 1014.98 1015.36 1015.96 1016.41 1016.74 1016.94 1017.12
1009.06 1008.82 1008.60 1008.47 1008.17 1007.85 1007.38 1006.89 1006.62 1006.35 1006.17 1005.72 1005.31 1005.12 1004.99 1004.66 1004.30 1004.29 1004.29 1004.59 1004.96 1005.27 1005.75 1006.28 1006.73 1007.17 1007.85 1008.47 1009.07 1009.70 1010.36 1011.14 1011.90 1012.54 1013.18 1013.83 1014.37 1014.82 1015.29 1015.82 1016.24 1016.55 1016.78
1008.82 1008.64 1008.49 1008.27 1007.89 1007.44 1006.97 1006.65 1006.26 1006.02 1005.78 1005.27 1004.74 1004.46 1004.20 1003.97 1003.73 1003.61 1003.64 1003.87 1004.19 1004.53 1004.89 1005.38 1005.89 1006.34 1006.78 1007.38 1008.05 1008.75 1009.44 1010.33 1011.10 1011.82 1012.54 1013.22 1013.73 1014.22 1014.65 1015.15 1015.63 1016.10 1016.44
1008.57 1008.33 1008.03 1007.81 1007.38 1006.83 1006.47 1005.85 1005.77 1005.68 1005.34 1004.74 1004.26 1003.89 1003.59 1003.30 1003.10 1003.01 1003.03 1003.22 1003.44 1003.71 1004.08 1004.58 1004.98 1005.40 1005.95 1006.55 1007.16 1007.90 1008.69 1009.51 1010.51 1011.17 1011.91 1012.60 1013.24 1013.77 1014.16 1014.59 1015.15 1015.57 1015.90
Wind_Speed
15 14 14 13 14 13 12 13 13 12 11 12 11 10 10 10 9 9 9 9 9 8 8 8 8 7 6 5 4 4 5 6 10 11 10 11 12 13 12 11 10 9 7
13 14 15 13 13 13 13 14 13 13 12 12 11 11 11 10 10 10 10 9 9 9 9 7 8 5 7 6 4 6 6 8 6 13 12 10 12 13 13 12 9 8 8
12 13 13 14 13 14 14 13 13 13 13 12 12 12 12 11 11 10 10 10 10 10 9 8 8 6 7 6 5 6 6 7 6 7 10 8 9 9 11 10 9 9 6
12 13 14 15 15 13 12 12 13 13 13 13 13 12 12 11 11 10 10 10 10 9 9 9 8 8 8 8 7 7 8 9 7 7 9 9 9 9 9 10 9 8 5
12 13 14 13 13 12 11 11 12 13 13 13 12 12 12 11 9 11 11 10 10 10 9 9 9 10 12 12 7 7 9 7 6 7 8 8 7 8 9 7 7 8 7
11 13 11 11 11 13 13 12 11 12 13 12 13 13 12 9 16 19 14 10 10 10 10 9 9 11 11 13 15 12 12 8 8 6 6 8 9 6 2 4 5 7 5
10 10 10 11 12 12 12 12 13 13 12 13 13 13 13 13 19 21 20 10 10 11 11 9 8 7 10 8 11 13 11 9 10 8 8 8 6 5 3 2 1 3 4
9 9 9 10 12 12 12 13 13 12 13 12 12 13 12 11 20 22 21 12 10 11 11 10 9 9 9 9 9 9 7 5 6 5 6 8 8 7 6 3 2 4 6
7 9 10 10 11 11 12 13 13 12 12 12 10 12 13 12 21 22 18 11 10 11 10 10 10 9 12 13 10 10 7 6 5 7 8 10 12 12 5 4 5 6 4
7 8 9 10 11 12 12 12 10 11 12 9 11 12 16 13 19 22 19 8 11 8 8 9 16 12 15 15 11 9 4 5 4 4 4 4 5 5 6 4 4 5 4
5 6 7 9 10 11 10 9 10 11 10 11 12 11 13 14 12 22 23 10 9 8 8 7 8 18 18 17 16 9 7 5 5 3 3 3 3 3 2 3 4 4 4
5 5 6 8 8 7 10 9 10 10 10 11 11 10 9 11 19 19 23 24 17 10 9 8 8 18 18 17 13 12 12 9 4 4 3 4 3 3 2 3 3 4 4
5 7 8 7 8 9 9 9 7 9 9 9 9 9 8 9 9 22 22 25 24 13 8 11 15 18 19 15 16 13 11 5 5 4 5 4 3 1 5 4 2 3 3
8 7 6 8 8 7 7 7 8 8 9 9 9 10 9 8 9 9 11 12 22 16 15 11 12 14 16 12 10 9 5 6 6 5 5 3 2 2 2 2 2 3 2
7 6 7 5 8 8 8 8 9 11 12 10 10 10 9 9 12 16 15 11 11 13 10 7 8 8 9 8 6 6 5 6 6 5 5 4 4 3 2 2 1 1 1
7 6 5 6 5 6 7 8 17 20 18 23 20 13 9 17 15 19 23 23 23 21 8 8 9 10 10 9 9 8 7 9 7 7 6 5 4 4 3 3 2 2 1
5 6 6 7 7 6 6 7 9 6 20 22 22 24 22 15 20 16 20 21 22 20 9 10 10 10 10 9 8 8 8 8 9 8 7 6 5 4 5 4 3 3 3
5 10 6 6 7 7 7 7 7 7 7 7 14 20 21 21 19 17 17 16 10 15 10 10 10 10 10 9 8 8 8 8 9 8 8 7 6 5 5 5 4 4 3
6 6 6 6 5 9 7 8 7 8 7 7 5 7 14 19 19 19 19 10 11 10 11 10 9 9 9 9 8 7 9 9 9 9 8 7 6 6 5 4 4 6 4
5 11 9 6 6 7 6 7 7 8 8 7 7 8 5 9 10 12 11 11 10 10 10 10 9 9 9 8 8 8 8 10 9 8 8 8 7 6 6 6 5 4 4
4 6 9 6 6 6 7 7 7 7 7 7 8 8 13 8 9 10 11 11 11 11 11 10 9 9 9 8 8 8 9 9 9 9 8 8 8 7 6 5 5 5 4
5 6 5 6 6 7 7 7 7 8 8 8 7 8 16 9 8 9 10 11 11 11 10 10 9 9 10 10 10 10 10 10 9 9 9 9 8 8 7 6 6 5 5
4 6 7 7 7 11 8 7 8 8 9 8 8 7 7 8 8 9 9 10 10 10 10 10 10 9 9 9 10 10 11 11 10 10 9 9 8 8 8 7 7 6 6
5 5 8 7 7 8 8 9 8 10 10 9 8 7 8 8 8 9 9 9 9 9 10 10 10 13 12 11 9 9 9 9 9 11 13 9 9 10 8 8 7 7 6
4 6 5 6 7 7 7 9 9 10 10 9 8 8 8 8 9 8 8 9 9 9 11 10 10 14 17 18 15 15 15 19 14 14 9 11 11 13 10 8 8 6 6
4 5 5 6 6 6 6 6 7 8 9 9 8 8 8 9 9 8 7 9 9 9 11 9 12 17 18 16 18 19 21 22 17 20 11 9 9 8 9 9 11 7 8
Wind_Direction
208 206 208 206 205 205 206 211 214 215 214 217 219 222 225 228 226 226 233 243 243 251 252 251 259 262 270 268 258 264 263 251 278 303 308 329 337 337 339 343 341 340 340
212 208 210 207 202 207 213 211 208 213 212 217 218 221 225 228 228 226 232 235 240 246 252 249 255 262 267 263 263 269 261 271 269 301 311 324 332 336 335 341 341 343 338
208 210 212 211 203 209 213 212 209 213 215 213 215 220 223 225 226 226 230 235 238 242 247 248 250 255 268 261 259 261 268 269 278 269 306 311 326 335 341 349 349 348 343
202 206 212 214 213 212 210 209 208 212 217 216 215 218 219 222 224 226 223 229 236 239 240 243 243 243 257 260 257 257 267 271 282 288 297 308 326 337 343 354 348 351 336
201 205 216 214 215 217 212 208 211 208 216 218 218 220 221 221 223 222 221 225 229 237 237 240 239 240 246 249 235 238 263 272 288 296 290 304 321 336 345 346 337 334 322
208 218 215 215 210 211 212 213 209 215 218 214 219 220 219 222 225 226 218 221 224 230 237 236 239 249 257 263 264 259 263 277 287 287 291 293 310 312 325 340 342 352 345
213 221 215 209 215 216 217 211 212 214 214 216 217 217 224 226 226 229 230 223 220 225 229 232 239 234 245 246 248 257 266 276 284 284 281 281 282 286 295 253 289 310 300
222 229 224 217 218 216 209 218 221 217 213 216 217 216 221 227 227 230 232 231 222 226 224 223 226 230 232 233 231 243 251 260 274 271 261 273 274 271 270 271 264 274 277
236 233 229 220 224 216 217 216 219 215 215 212 215 215 218 229 227 228 228 227 227 227 221 215 216 223 235 233 223 239 248 262 272 273 284 290 293 307 283 279 305 322 325
244 240 234 222 224 222 219 217 217 216 221 215 216 217 220 224 225 226 225 220 227 226 222 220 219 218 231 232 236 225 204 244 268 273 294 302 307 306 323 290 298 302 324
218 219 234 236 233 230 229 222 212 214 219 215 220 219 218 219 219 221 224 215 221 221 220 216 217 224 229 233 232 212 211 215 224 236 274 276 275 283 307 310 293 277 293
299 276 237 230 227 227 227 224 221 217 219 228 224 227 222 221 221 223 222 222 215 216 219 215 215 216 224 229 231 212 215 225 197 226 253 261 260 272 285 299 291 278 268
283 275 271 256 245 231 218 225 220 220 221 220 222 227 222 215 219 221 222 225 224 218 217 216 212 214 219 224 226 222 227 181 192 226 243 247 241 305 298 296 289 279 266
280 275 270 274 265 237 233 221 216 213 221 221 223 226 221 210 209 208 216 220 227 226 212 220 215 209 213 215 217 230 172 180 192 225 239 238 232 201 256 311 305 335 306
277 281 282 263 270 265 236 225 218 224 211 217 222 223 217 218 218 205 197 202 205 210 193 192 202 204 204 209 205 195 180 180 187 204 221 219 218 200 189 193 249 291 325
288 292 286 288 278 266 266 272 242 240 230 234 236 220 228 238 232 214 213 210 206 200 185 196 201 202 206 206 205 201 194 197 197 203 212 218 218 207 190 179 196 215 237
268 290 291 286 280 268 258 254 275 259 247 239 239 241 233 234 238 222 214 211 208 195 198 202 204 200 204 206 203 200 202 201 192 200 209 209 209 208 199 195 200 205 206
281 283 284 288 284 280 263 253 249 255 267 261 240 236 239 234 228 234 214 198 200 205 201 202 204 199 200 203 201 200 198 189 196 197 205 206 203 204 200 205 205 210 203
287 287 282 278 275 278 275 266 254 255 248 257 252 244 238 232 228 219 219 208 195 201 200 205 200 199 198 197 197 191 187 188 191 195 198 200 200 199 202 206 206 206 205
287 288 295 292 295 288 275 266 264 257 256 252 248 240 221 216 218 213 214 212 204 204 202 204 200 194 195 190 185 183 186 190 191 195 199 194 195 200 206 197 202 206 208
275 275 293 290 289 279 273 267 261 257 257 251 252 241 220 212 209 212 214 215 209 207 203 198 196 194 190 186 180 182 189 190 191 193 196 193 187 195 205 205 196 201 205
283 292 291 290 290 288 288 282 273 264 257 258 258 246 240 229 220 215 215 215 212 211 206 196 192 194 188 184 183 184 188 190 188 191 192 192 186 189 194 201 199 196 199
287 291 298 300 295 298 302 297 285 271 265 255 254 248 236 230 226 219 215 216 209 204 199 195 193 188 189 188 186 184 186 191 189 184 188 186 184 183 187 196 199 196 195
272 274 305 306 308 308 308 305 295 282 274 265 258 250 243 233 230 226 217 214 211 205 197 197 195 191 189 187 184 184 187 185 179 185 182 183 185 179 182 190 194 199 197
314 315 313 304 307 307 307 311 306 302 287 275 267 256 251 240 237 230 220 213 211 207 200 195 197 197 192 187 183 183 179 175 176 177 178 182 183 182 180 185 185 190 192
311 292 283 277 277 285 287 294 292 290 292 292 282 271 259 250 241 238 223 211 210 209 202 199 200 196 193 191 186 180 175 173 175 176 174 176 177 179 178 182 187 190 191